Погода в Радищеве

Россия / Пензенская область     53°02′56″N   46°25′48″E
темп.,
°C
ветер,
м/с
пор.,
м/с
влажн.,
%
обл.,
%
осадки,
мм/ч
давл.,
гПа
погр.,
м
11 мая, вт
вт1100:00+16всв61663100 0.0 1016506
03:00+14всв6136395 0.0 1017481
06:00+14юв497037 0.0 1019629
09:00+12юв4783100 0.6 1023587
12:00+13ююв5776100 0.1 1025700
15:00+10юв4119194 2.4 1026518
18:00+12вюв257999 0.5 1026429
21:00+10св2288100 0.8 102648
12 мая, ср
ср1200:00+11всв2493100 0.4 1026109
03:00+11ссв2895100 2.4 1025228
06:00+12в51494100 1.4 1024677
09:00+14в61491100 1.7 1024735
12:00+15вюв71385100 0.6 1024904
15:00+14вюв6149097 0.8 1024810
18:00+14вюв6138483 0.0 1024702
21:00+13вюв513871 0.0 1024441
13 мая, чт
чт1300:00+12в4128919 0.0 1024264
03:00+13в41371100 0.0 1023344
06:00+14в61666100 0.1 1022433
09:00+14вюв71588100 0.9 1022555
12:00+20юв81462100 0.0 10211013
15:00+21вюв71453100 0.0 10201573
18:00+19юв51357100 0.1 1020595
21:00+15вюв412760 0.3 1020216
14 мая, пт
пт1400:00+13юв311770 0.0 1020210
03:00+12юв22807 0.0 102141
06:00+15ююв24785 0.1 1021115
09:00+22ююв475421 0.1 1021467
12:00+24ююв61041100 0.0 1021947
15:00+26ююв6104340 0.0 10201422
18:00+23ююв41157100 0.0 1020402
21:00+19ююв515555 0.0 1020377
15 мая, сб
сб1500:00+17ююв414545 0.0 1020290
03:00+15юв410585 0.0 1020179
06:00+16ююв412583 0.0 1020248
09:00+22ююв612405 0.0 1019541
12:00+25ююв7113465 0.0 10191045
15:00+27ююв610365 0.0 10181744
18:00+23ююв41050100 0.0 1017314
21:00+18юв310605 0.0 1017159